Regional Weather Roundup
Issued by NWS Newport/Morehead, NC

Current Version | Previous Version | Graphics & Text | Print | Product List | Glossary Off
Versions: 1 2 3 4 5 6 7 8 9 10 11 12 13 14 15 16 17 18 19 20 21 22 23 24 25 26 27 28 29 30 31 32 33 34 35 36 37 38 39 40 41 42 43 44 45 46 47 48 49 50

509
ASUS42 KMHX 202013
RWRMHX
WEATHER ROUNDUP FOR EASTERN NORTH CAROLINA
NATIONAL WEATHER SERVICE NEWPORT/MOREHEAD CITY NC
300 PM EST MON NOV 20 2017

NOTE: "FAIR" INDICATES FEW OR NO CLOUDS BELOW 12,000 FEET
WITH NO SIGNIFICANT WEATHER AND/OR OBSTRUCTIONS TO VISIBILITY

NCZ015>017-031-032-045>047-102-103-202100-
NORTH COAST

CITY           SKY/WX    TMP DP  RH WIND       PRES   REMARKS
EDENTON        SUNNY     55  28  35 CALM      30.24S
ELIZABETH CITY SUNNY     54  30  40 W8        30.23S
KITTY HAWK     NOT AVBL
MANTEO         SUNNY     50  31  47 NW5       30.24S

$$

NCZ045>047-081-094-103-104-202100-
CENTRAL COAST

CITY           SKY/WX    TMP DP  RH WIND       PRES   REMARKS
FRISCO         SUNNY     55  36  48 N6        30.23S

$$

NCZ095-097-098-100-101-202100-
SOUTHERN COAST

CITY           SKY/WX    TMP DP  RH WIND       PRES   REMARKS
BEAUFORT       SUNNY     57  30  35 N5        30.22F
CEDAR ISLAND   NOT AVBL
JACKSONVILLE   MOSUNNY   59  29  31 N6        30.22F
PINEY ISLAND     N/A    N/A N/A N/A NE8       30.22F
WILMINGTON     SUNNY     60  28  29 CALM      30.23S


$$

NCZ011>013-027>030-043-044-078>080-089-090>093-098-202100-
COASTAL PLAIN

CITY           SKY/WX    TMP DP  RH WIND       PRES   REMARKS
AHOSKIE        SUNNY     53  25  33 CALM      30.23F
CLINTON        SUNNY     58  30  33 CALM      30.24S
ELIZABETHTOWN  NOT AVBL
GOLDSBORO      SUNNY     57  25  29 CALM      30.21F
GREENVILLE     SUNNY     55  27  33 CALM      30.24S
HAVELOCK       SUNNY     57  29  34 N7        30.23F
KENANSVILLE    SUNNY     57  25  28 CALM      30.23S
KINSTON        SUNNY     55  23  28 CALM      30.23F
NEW BERN       SUNNY     56  28  34 CALM      30.24S
RICHLANDS      SUNNY     57  28  33 VRB3      30.23S
ROCKY MOUNT    SUNNY     54  25  32 VRB3      30.23F
WASHINGTON     SUNNY     56  28  33 NW5       30.23F
WHITEVILLE     SUNNY     59  24  26 NE5       30.23S

$$

AMZ130-135-150-152-154-156-158-170-250-252-270-ANZ085-086-088-633-658-670-202100-
MARINE OBSERVATIONS

STATION/POSITION TIME  TEMP    WIND        PRES    WAVE   SWELL
                       AIR SEA DIR/SP/G            HT/PER HT/PER
                 (UTC) (F)     (DEG/KT/KT) (MB)    (FT/S) (FT/S)
CHESAPEAKE LIGHT NOT AVBL
64 E VA BEACH    1950   50 60  290/ 12/ 16 1023.7    5/ 7   3/ 7
DUCK             1942   51 60  340/  6/  8 1023.3
2 E DUCK         2000      61                N/A     2/ 5
OREGON INLET     1942   50 55  310/  8/ 10 1023.7
13E OREGON INLT  1948      62                N/A     4/ 7   3/ 7
HATTERAS CG      1942   52 58  350/  8/ 10 1023.4
DIAMOND BUOY     1950   53 65  350/ 10/ 14 1023.8    3/ 8   3/ 8
CAPE LOOKOUT     2000           30/  4/  6 1023.8
BEAUFORT LAB     1942   55 59  350/  1/  5 1023.3
30 SE NEW RVR IN 1908   53 67   20/  8/ 12 1023.6
30 SE NEW RVR IN 2000      67                N/A     2/ 9
27 SE WRIGHTSVLE 1908   54 68   20/ 12/ 19 1023.5
5 SE WRIGHTSVLE  1908   55 64   20/  6/ 10 1023.6
225 S CAPE HAT   1950   66 77   40/ 14/ 19 1021.2    6/ 7   3/ 7
41 SE CHARLESTON 1950   59 73   40/ 12/ 19 1023.2    4/ 6   3/ 9

$$




USA.gov is the U.S. government's official web portal to all federal, state and local government web resources and services.